When you browse on this site, cookies collect data to enhance your experience and personalize the content and advertising you see.
Visit our Privacy Policy to learn more. By continuing to use the site, you agree to this use of cookies and data.
  • In United Kingdom
  • List of Countries
  • For 7 days
  • Water Temperature
  • Weather Map
  • Weather Widgets
  • user-avatar
    Login

    Hourly Weather Birmingham

    Today, 28 February, Friday

    Time Temperature Precipitation Wind Pressure Humidity
    00:00 0°C° 0 mm 3 mps 746 mmHg 84%
    01:00 0°C° 0 mm 3 mps 746 mmHg 84%
    02:00 0°C° 0 mm 3 mps 745 mmHg 84%
    03:00 0°C° 0 mm 3 mps 745 mmHg 84%
    04:00 -1°C° 0 mm 4 mps 745 mmHg 82%
    05:00 0°C° 0 mm 4 mps 744 mmHg 80%
    06:00 0°C° 0 mm 5 mps 744 mmHg 79%
    07:00 +1°C° 0.2 mm 6 mps 742 mmHg 83%
    08:00 0°C° 0.2 mm 7 mps 741 mmHg 87%
    09:00 0°C° 0.2 mm 8 mps 740 mmHg 92%
    10:00 +1°C° 0.8 mm 8 mps 739 mmHg 92%
    11:00 +2°C° 0.8 mm 8 mps 737 mmHg 92%
    12:00 +3°C° 0.8 mm 9 mps 736 mmHg 93%
    13:00 +5°C° 0.8 mm 8 mps 735 mmHg 92%
    14:00 +6°C° 0.8 mm 8 mps 734 mmHg 92%
    15:00 +9°C° 0.8 mm 8 mps 733 mmHg 92%
    16:00 +9°C° 0.2 mm 8 mps 733 mmHg 91%
    17:00 +8°C° 0.2 mm 7 mps 732 mmHg 90%
    18:00 +8°C° 0.2 mm 7 mps 732 mmHg 89%
    19:00 +7°C° 0.4 mm 8 mps 731 mmHg 90%
    20:00 +7°C° 0.4 mm 8 mps 731 mmHg 91%
    21:00 +7°C° 0.4 mm 8 mps 730 mmHg 92%
    22:00 +8°C° 0.5 mm 9 mps 729 mmHg 91%
    23:00 +8°C° 0.5 mm 9 mps 728 mmHg 90%

    Tomorrow, 29 February, Saturday

    Time Temperature Precipitation Wind Pressure Humidity
    00:00 +8°C° 0.5 mm 9 mps 727 mmHg 89%
    01:00 +8°C° 0.1 mm 10 mps 725 mmHg 88%
    02:00 +8°C° 0.1 mm 11 mps 724 mmHg 87%
    03:00 +8°C° 0.1 mm 11 mps 722 mmHg 85%
    04:00 +7°C° 0.7 mm 9 mps 722 mmHg 86%
    05:00 +6°C° 0.7 mm 8 mps 722 mmHg 86%
    06:00 +5°C° 0.7 mm 6 mps 721 mmHg 86%
    07:00 +4°C° 0.3 mm 7 mps 721 mmHg 84%
    08:00 +2°C° 0.3 mm 8 mps 721 mmHg 82%
    09:00 +1°C° 0.3 mm 9 mps 721 mmHg 80%
    10:00 +1°C° 0.1 mm 9 mps 722 mmHg 72%
    11:00 +2°C° 0.1 mm 10 mps 723 mmHg 64%
    12:00 +2°C° 0.1 mm 11 mps 723 mmHg 56%
    13:00 +2°C° 0.1 mm 11 mps 723 mmHg 57%
    14:00 +2°C° 0.1 mm 11 mps 723 mmHg 57%
    15:00 +2°C° 0.1 mm 12 mps 723 mmHg 57%
    16:00 +2°C° 0 mm 11 mps 723 mmHg 59%
    17:00 +1°C° 0 mm 10 mps 723 mmHg 62%
    18:00 +1°C° 0 mm 9 mps 724 mmHg 64%
    19:00 0°C° 0 mm 9 mps 724 mmHg 65%
    20:00 0°C° 0 mm 8 mps 724 mmHg 67%
    21:00 0°C° 0 mm 8 mps 724 mmHg 68%
    22:00 0°C° 0 mm 8 mps 724 mmHg 69%
    23:00 0°C° 0 mm 9 mps 724 mmHg 70%

    Day after tomorrow, 1 March, Sunday

    Time Temperature Precipitation Wind Pressure Humidity
    00:00 0°C° 0 mm 9 mps 724 mmHg 72%
    01:00 0°C° 0 mm 9 mps 724 mmHg 70%
    02:00 0°C° 0 mm 9 mps 725 mmHg 68%
    03:00 0°C° 0 mm 9 mps 725 mmHg 67%
    04:00 0°C° 0 mm 9 mps 725 mmHg 68%
    05:00 0°C° 0 mm 8 mps 725 mmHg 70%
    06:00 -1°C° 0 mm 8 mps 725 mmHg 71%
    07:00 0°C° 0 mm 8 mps 725 mmHg 70%
    08:00 0°C° 0 mm 8 mps 725 mmHg 68%
    09:00 +1°C° 0 mm 8 mps 725 mmHg 67%
    10:00 +2°C° 0.1 mm 9 mps 726 mmHg 64%
    11:00 +2°C° 0.1 mm 9 mps 726 mmHg 60%
    12:00 +3°C° 0.1 mm 9 mps 726 mmHg 57%
    13:00 +3°C° 0.1 mm 9 mps 726 mmHg 58%
    14:00 +3°C° 0.1 mm 9 mps 726 mmHg 58%
    15:00 +4°C° 0.1 mm 8 mps 726 mmHg 58%
    16:00 +3°C° 0 mm 7 mps 726 mmHg 63%
    17:00 +2°C° 0 mm 6 mps 726 mmHg 69%
    18:00 +1°C° 0 mm 5 mps 726 mmHg 74%
    19:00 +1°C° 0 mm 5 mps 726 mmHg 76%
    20:00 0°C° 0 mm 5 mps 726 mmHg 77%
    21:00 0°C° 0 mm 5 mps 726 mmHg 79%
    22:00 0°C° 0 mm 4 mps 726 mmHg 81%
    23:00 -1°C° 0 mm 4 mps 726 mmHg 84%

    2 March, Monday

    Time Temperature Precipitation Wind Pressure Humidity
    00:00 0°C° 0 mm 3 mps 726 mmHg 86%
    01:00 0°C° 0 mm 3 mps 726 mmHg 85%
    02:00 -1°C° 0 mm 3 mps 726 mmHg 85%
    03:00 -1°C° 0 mm 3 mps 726 mmHg 84%
    04:00 -1°C° 0 mm 3 mps 726 mmHg 84%
    05:00 -1°C° 0 mm 3 mps 727 mmHg 84%
    06:00 -1°C° 0 mm 3 mps 727 mmHg 84%
    07:00 -1°C° 0 mm 4 mps 728 mmHg 79%
    08:00 0°C° 0 mm 5 mps 728 mmHg 74%
    09:00 +1°C° 0 mm 6 mps 728 mmHg 69%
    10:00 +2°C° 0 mm 6 mps 729 mmHg 64%
    11:00 +3°C° 0 mm 6 mps 729 mmHg 60%
    12:00 +4°C° 0 mm 7 mps 730 mmHg 56%
    13:00 +4°C° 0.2 mm 7 mps 730 mmHg 56%
    14:00 +4°C° 0.2 mm 7 mps 730 mmHg 57%
    15:00 +4°C° 0.2 mm 7 mps 730 mmHg 58%
    16:00 +3°C° 0 mm 6 mps 731 mmHg 62%
    17:00 +2°C° 0 mm 5 mps 731 mmHg 67%
    18:00 0°C° 0 mm 4 mps 732 mmHg 71%
    19:00 0°C° 0 mm 5 mps 733 mmHg 73%
    20:00 0°C° 0 mm 5 mps 733 mmHg 75%
    21:00 -1°C° 0 mm 5 mps 734 mmHg 77%
    22:00 -1°C° 0 mm 5 mps 734 mmHg 78%
    23:00 -1°C° 0 mm 5 mps 735 mmHg 79%

    3 March, Tuesday

    Time Temperature Precipitation Wind Pressure Humidity
    00:00 -1°C° 0 mm 5 mps 735 mmHg 80%
    01:00 -1°C° 0 mm 5 mps 735 mmHg 81%
    02:00 -1°C° 0 mm 5 mps 735 mmHg 83%
    03:00 -2°C° 0 mm 4 mps 736 mmHg 84%
    04:00 -1°C° 0 mm 5 mps 736 mmHg 83%
    05:00 -1°C° 0 mm 5 mps 736 mmHg 81%
    06:00 -1°C° 0 mm 5 mps 737 mmHg 80%
    07:00 -1°C° 0 mm 6 mps 737 mmHg 76%
    08:00 -1°C° 0 mm 6 mps 738 mmHg 73%
    09:00 0°C° 0 mm 7 mps 738 mmHg 69%
    10:00 +2°C° 0 mm 7 mps 738 mmHg 64%
    11:00 +3°C° 0 mm 7 mps 738 mmHg 59%
    12:00 +4°C° 0 mm 7 mps 738 mmHg 54%
    13:00 +4°C° 0 mm 6 mps 738 mmHg 54%
    14:00 +4°C° 0 mm 6 mps 738 mmHg 54%
    15:00 +5°C° 0 mm 5 mps 738 mmHg 54%
    16:00 +3°C° 0 mm 5 mps 738 mmHg 59%
    17:00 +3°C° 0 mm 4 mps 738 mmHg 65%
    18:00 +2°C° 0 mm 3 mps 738 mmHg 71%
    19:00 +2°C° 0 mm 2 mps 738 mmHg 73%
    20:00 +1°C° 0 mm 2 mps 738 mmHg 76%
    21:00 +2°C° 0 mm 1 mps 739 mmHg 79%
    22:00 +1°C° 0 mm 1 mps 739 mmHg 80%
    23:00 +1°C° 0 mm 1 mps 738 mmHg 80%

    4 March, Wednesday

    Time Temperature Precipitation Wind Pressure Humidity
    00:00 +1°C° 0 mm 1 mps 738 mmHg 81%
    01:00 0°C° 0 mm 1 mps 738 mmHg 81%
    02:00 0°C° 0 mm 1 mps 738 mmHg 81%
    03:00 0°C° 0 mm 1 mps 738 mmHg 81%
    04:00 0°C° 0 mm 1 mps 738 mmHg 81%
    05:00 -1°C° 0 mm 0 mps 738 mmHg 82%
    06:00 -1°C° 0 mm 0 mps 738 mmHg 82%
    07:00 0°C° 0 mm 0 mps 738 mmHg 77%
    08:00 +2°C° 0 mm 0 mps 738 mmHg 73%
    09:00 +3°C° 0 mm 0 mps 739 mmHg 68%
    10:00 +4°C° 0 mm 0 mps 739 mmHg 64%
    11:00 +6°C° 0 mm 1 mps 739 mmHg 59%
    12:00 +7°C° 0 mm 1 mps 739 mmHg 54%
    13:00 +8°C° 0 mm 1 mps 738 mmHg 54%
    14:00 +7°C° 0 mm 2 mps 738 mmHg 53%
    15:00 +7°C° 0 mm 2 mps 738 mmHg 53%
    16:00 +6°C° 0 mm 2 mps 737 mmHg 59%
    17:00 +3°C° 0 mm 3 mps 737 mmHg 64%
    18:00 +2°C° 0 mm 3 mps 737 mmHg 70%
    19:00 +2°C° 0 mm 3 mps 737 mmHg 72%
    20:00 +1°C° 0 mm 3 mps 738 mmHg 73%
    21:00 +1°C° 0 mm 3 mps 738 mmHg 74%
    22:00 0°C° 0 mm 3 mps 738 mmHg 76%
    23:00 0°C° 0 mm 3 mps 738 mmHg 78%
    Show more